Location: Quedlinburg
(51.7921°N, 11.1414°E)
Time: 08:14:45
(UTC+02:00)

SO-50 - Pass Details

Date: 09 March 2026
Orbit: 567 x 673 km, 64.6° (Epoch: 13 April)

Event Time Altitude Azimuth Distance (km) Brightness Sun altitude
Rises 20:51:29 0° 230° (SW) 2,937 ? -25.1°
Reaches altitude 10° 20:53:45 10° 232° (SW) 2,047 ? -25.4°
Maximum altitude 20:58:24 68° 316° (NW) 714 ? -26.0°
Enters shadow 20:59:11 57° 8° (N) 786 ? -26.1°
